Location: Lhota
(50.0887°N, 14.0116°E)
Time: 16:35:03
(UTC+00:00)

Cosmos 1346 Rocket - Pass Details

Date: 19 May 2025
Orbit: 485 x 499 km, 81.2° (Epoch: 17 June)

Event Time Altitude Azimuth Distance (km) Brightness Sun altitude
Rises 19:31:15 0° 353° (N) 2,588 7.1 -6.1°
Reaches altitude 10° 19:33:28 10° 0° (N) 1,698 6.0 -6.4°
Maximum altitude 19:37:01 42° 73° (ENE) 714 3.2 -6.8°
Drops below altitude 10° 19:40:31 10° 145° (SE) 1,676 4.6 -7.2°
Enters shadow 19:40:44 - 147° (SSE) 1,762 4.8 -7.3°
